TimeCST,TemperatureF,Dew PointF,Humidity,Sea Level PressureIn,VisibilityMPH,Wind Direction,Wind SpeedMPH,Gust SpeedMPH,PrecipitationIn,Events,Conditions,WindDirDegrees,DateUTC
12:53 AM,57.0,50.0,77,30.08,10.0,Calm,Calm,-,N/A,,Clear,0,2012-11-05 06:53:00
1:53 AM,55.9,51.1,84,30.07,10.0,NNE,3.5,-,N/A,,Clear,20,2012-11-05 07:53:00
2:53 AM,55.9,51.1,84,30.05,10.0,Calm,Calm,-,N/A,,Clear,0,2012-11-05 08:53:00
3:53 AM,55.9,52.0,87,30.04,10.0,Calm,Calm,-,N/A,,Clear,0,2012-11-05 09:53:00
4:53 AM,54.0,50.0,86,30.04,10.0,Calm,Calm,-,N/A,,Clear,0,2012-11-05 10:53:00
6:53 AM,54.0,51.1,90,30.06,9.0,NNE,3.5,-,N/A,,Clear,20,2012-11-05 12:53:00
7:53 AM,59.0,53.1,81,30.07,9.0,Calm,Calm,-,N/A,,Clear,0,2012-11-05 13:53:00
8:53 AM,66.9,57.0,70,30.08,10.0,WSW,3.5,-,N/A,,Clear,240,2012-11-05 14:53:00
9:53 AM,71.1,57.9,63,30.08,10.0,WNW,6.9,-,N/A,,Clear,300,2012-11-05 15:53:00
10:53 AM,73.9,59.0,59,30.07,10.0,West,10.4,-,N/A,,Clear,280,2012-11-05 16:53:00
11:53 AM,77.0,59.0,54,30.05,10.0,WNW,8.1,-,N/A,,Clear,290,2012-11-05 17:53:00
12:53 PM,82.0,57.9,44,30.01,10.0,NW,12.7,19.6,N/A,,Clear,310,2012-11-05 18:53:00
1:53 PM,82.9,57.0,41,29.98,10.0,NW,9.2,-,N/A,,Partly Cloudy,320,2012-11-05 19:53:00
2:53 PM,82.9,55.0,38,29.97,10.0,NW,9.2,-,N/A,,Clear,310,2012-11-05 20:53:00
3:53 PM,82.9,52.0,34,29.97,10.0,North,12.7,-,N/A,,Scattered Clouds,350,2012-11-05 21:53:00
4:53 PM,80.1,51.1,36,29.99,10.0,North,8.1,-,N/A,,Clear,10,2012-11-05 22:53:00
5:53 PM,75.0,50.0,41,30.01,10.0,NNE,9.2,-,N/A,,Clear,20,2012-11-05 23:53:00
6:53 PM,72.0,44.1,37,30.04,10.0,NNE,9.2,-,N/A,,Clear,20,2012-11-06 00:53:00
7:53 PM,69.1,39.0,33,30.06,10.0,NNE,9.2,-,N/A,,Clear,20,2012-11-06 01:53:00
8:53 PM,66.0,37.0,34,30.08,10.0,NNE,8.1,-,N/A,,Clear,20,2012-11-06 02:53:00
9:53 PM,64.0,37.0,37,30.09,10.0,North,5.8,-,N/A,,Clear,10,2012-11-06 03:53:00
10:53 PM,63.0,37.0,38,30.09,10.0,NNE,4.6,-,N/A,,Clear,20,2012-11-06 04:53:00
11:53 PM,60.1,37.0,42,30.09,10.0,Calm,Calm,-,N/A,,Clear,0,2012-11-06 05:53:00